Weather History for Langdon, ND

Change the Weather History Date:

Monday, December 9, 2013

  Actual Average (KDVL) Record (KDVL)
Temperature  
Mean Temperature -11 °F -  
Max Temperature -2 °F 22 °F 50 °F (1974)
Min Temperature -20 °F 8 °F -22 °F (1948)
Degree Days  
Heating Degree Days 76    
Moisture  
Dew Point -16 °F    
Average Humidity 73    
Maximum Humidity 84    
Minimum Humidity 64    
Precipitation  
Precipitation 0.00 in - - ()
Sea Level Pressure  
Sea Level Pressure 29.80 in    
Wind  
Wind Speed 13 mph (West)    
Max Wind Speed 17 mph    
Max Gust Speed 20 mph    
Visibility 9 miles    
Events Snow    
Averages and records for this station are not official NWS values.
T = Trace of Precipitation, MM = Missing Value Source: NWS Daily Summary

Daily Weather History Graph

Daily Weather History Graph

Search for Another Location

Airport:

Trip Planner

Search our weather history database for the weather conditions in past years. The results will help you decide how hot, cold, wet, or windy it might be!

Date:

Astronomy

Dec. 09, 2013 Rise Set
Actual Time 8:14 AM CST 4:37 PM CST
Civil Twilight 7:37 AM CST 5:14 PM CST
Nautical Twilight 6:57 AM CST 5:54 PM CST
Astronomical Twilight 6:19 AM CST 6:32 PM CST
Moon 12:38 PM CST (12/9) No Moon Set
Length of Visible Light 9h 36m
Length of Day
8h 22m
Waxing Crescent, 51% of the Moon is Illuminated
Dec 9
Waxing Crescent
Dec 17
Full
Dec 25
Last Quarter
Jan 1
New
Jan 7
First Quarter

Hourly Weather History & Observations

Time (CST) Temp. Windchill Dew Point Humidity Pressure Visibility Wind Dir Wind Speed Gust Speed Precip Events Conditions
12:15 AM -11.2 °F -31.1 °F -18.4 °F 70% 29.89 in 10.0 mi WNW 11.5 mph - N/A   Clear
12:35 AM -11.2 °F -32.9 °F -18.4 °F 70% 29.89 in 10.0 mi WNW 13.8 mph - N/A   Clear
12:55 AM -13.0 °F -33.4 °F -18.4 °F 77% 29.89 in 10.0 mi WNW 11.5 mph - N/A   Clear
1:15 AM -13.0 °F -36.8 °F -18.4 °F 77% 29.89 in 10.0 mi WNW 16.1 mph - N/A   Clear
1:35 AM -13.0 °F -37.5 °F -20.2 °F 70% 29.89 in 10.0 mi WNW 17.3 mph - N/A   Scattered Clouds
1:55 AM -13.0 °F -37.5 °F -20.2 °F 70% 29.89 in 10.0 mi WNW 17.3 mph - N/A   Mostly Cloudy
2:15 AM -13.0 °F -36.8 °F -20.2 °F 70% 29.90 in 8.0 mi WNW 16.1 mph - N/A   Overcast
2:35 AM -13.0 °F -36.8 °F -20.2 °F 70% 29.90 in 9.0 mi WNW 16.1 mph - N/A   Overcast
2:55 AM -13.0 °F -36.8 °F -20.2 °F 70% 29.90 in 8.0 mi WNW 16.1 mph - N/A   Overcast
3:15 AM -13.0 °F -36.0 °F -20.2 °F 70% 29.90 in 10.0 mi WNW 15.0 mph - N/A   Mostly Cloudy
3:35 AM -13.0 °F -36.8 °F -20.2 °F 70% 29.90 in 10.0 mi WNW 16.1 mph - N/A   Mostly Cloudy
3:55 AM -13.0 °F -35.2 °F -20.2 °F 70% 29.89 in 10.0 mi WNW 13.8 mph - N/A   Overcast
4:15 AM -13.0 °F -37.5 °F -20.2 °F 70% 29.89 in 10.0 mi WNW 17.3 mph - N/A   Overcast
4:55 AM -16.6 °F -40.6 °F -22.0 °F 76% 29.89 in 6.0 mi WNW 15.0 mph - N/A   Haze
5:15 AM -16.6 °F -37.9 °F -22.0 °F 76% 29.89 in 8.0 mi West 11.5 mph - N/A   Overcast
5:35 AM -16.6 °F -39.8 °F -22.0 °F 76% 29.89 in 10.0 mi West 13.8 mph - N/A   Overcast
5:55 AM -16.6 °F -41.4 °F -22.0 °F 76% 29.88 in 8.0 mi WNW 16.1 mph - N/A   Overcast
6:15 AM -16.6 °F -39.8 °F -22.0 °F 76% 29.87 in 10.0 mi WNW 13.8 mph - N/A   Overcast
6:35 AM -16.6 °F -39.8 °F -22.0 °F 76% 29.87 in 10.0 mi West 13.8 mph - N/A   Overcast
6:55 AM -18.4 °F -41.2 °F -23.8 °F 76% 29.87 in 10.0 mi West 12.7 mph - N/A   Overcast
7:15 AM -20.2 °F -42.4 °F -27.4 °F 69% 29.87 in 10.0 mi West 11.5 mph - N/A   Overcast
7:35 AM -20.2 °F -37.3 °F -25.6 °F 76% 29.86 in 10.0 mi West 6.9 mph - N/A   Overcast
7:55 AM -20.2 °F -38.8 °F -27.4 °F 69% 29.86 in 10.0 mi West 8.1 mph - N/A   Mostly Cloudy
8:15 AM -20.2 °F -43.4 °F -27.4 °F 69% 29.87 in 10.0 mi WSW 12.7 mph - N/A   Overcast
8:35 AM -20.2 °F -42.4 °F -27.4 °F 69% 29.87 in 10.0 mi WSW 11.5 mph - N/A   Scattered Clouds
8:55 AM -20.2 °F -43.4 °F -25.6 °F 76% 29.87 in 10.0 mi SW 12.7 mph - N/A   Scattered Clouds
9:15 AM -18.4 °F -41.2 °F -25.6 °F 70% 29.87 in 10.0 mi WSW 12.7 mph - N/A   Mostly Cloudy
9:35 AM -18.4 °F -41.2 °F -23.8 °F 76% 29.88 in 10.0 mi WSW 12.7 mph - N/A   Mostly Cloudy
9:55 AM -16.6 °F -38.9 °F -22.0 °F 76% 29.87 in 5.0 mi WSW 12.7 mph - N/A   Haze
10:15 AM -13.0 °F -36.0 °F -20.2 °F 70% 29.87 in 9.0 mi WSW 15.0 mph - N/A   Overcast
10:35 AM -13.0 °F -34.3 °F -20.2 °F 70% 29.87 in 10.0 mi WSW 12.7 mph - N/A   Overcast
10:55 AM -11.2 °F -34.4 °F -20.2 °F 64% 29.85 in 10.0 mi WSW 16.1 mph - N/A   Overcast
11:15 AM -11.2 °F -32.1 °F -18.4 °F 70% 29.84 in 10.0 mi WSW 12.7 mph - N/A   Scattered Clouds
11:35 AM -9.4 °F -30.6 °F -18.4 °F 65% 29.82 in 10.0 mi SW 13.8 mph - N/A   Partly Cloudy
11:55 AM -9.4 °F -31.4 °F -18.4 °F 65% 29.79 in 10.0 mi SW 15.0 mph 19.6 mph N/A   Mostly Cloudy
12:15 PM -9.4 °F -32.1 °F -16.6 °F 71% 29.78 in 10.0 mi WSW 16.1 mph - N/A   Partly Cloudy
12:35 PM -7.6 °F -27.5 °F -14.8 °F 71% 29.78 in 10.0 mi WSW 12.7 mph - N/A   Clear
12:55 PM -5.8 °F -27.5 °F -14.8 °F 65% 29.77 in 10.0 mi WSW 16.1 mph - N/A   Clear
1:15 PM -7.6 °F -30.5 °F -14.8 °F 71% 29.77 in 10.0 mi WSW 17.3 mph - N/A   Scattered Clouds
1:35 PM -7.6 °F -29.8 °F -13.0 °F 77% 29.77 in 10.0 mi WSW 16.1 mph - N/A   Scattered Clouds
1:55 PM -5.8 °F -28.2 °F -13.0 °F 71% 29.76 in 10.0 mi SW 17.3 mph - N/A   Overcast
2:15 PM -5.8 °F -27.5 °F -13.0 °F 71% 29.74 in 10.0 mi SW 16.1 mph - N/A   Overcast
2:35 PM -5.8 °F -25.2 °F -13.0 °F 71% 29.73 in 10.0 mi SW 12.7 mph - N/A   Mostly Cloudy
2:55 PM -5.8 °F -23.4 °F -13.0 °F 71% 29.72 in 10.0 mi SW 10.4 mph - N/A   Clear
3:15 PM -5.8 °F -22.4 °F -13.0 °F 71% 29.71 in 10.0 mi SSW 9.2 mph - N/A   Clear
3:35 PM -5.8 °F -22.4 °F -11.2 °F 77% 29.70 in 10.0 mi SSW 9.2 mph - N/A   Clear
3:55 PM -4.0 °F -22.1 °F -11.2 °F 71% 29.70 in 10.0 mi SW 11.5 mph - N/A   Clear
4:15 PM -4.0 °F -22.1 °F -11.2 °F 71% 29.69 in 10.0 mi SSW 11.5 mph - N/A   Clear
4:35 PM -5.8 °F -23.4 °F -11.2 °F 77% 29.69 in 10.0 mi SW 10.4 mph - N/A   Clear
4:55 PM -4.0 °F -22.1 °F -11.2 °F 71% 29.70 in 10.0 mi SSW 11.5 mph - N/A   Clear
5:15 PM -4.0 °F -21.2 °F -11.2 °F 71% 29.69 in 10.0 mi SSW 10.4 mph - N/A   Clear
5:35 PM -4.0 °F -16.3 °F -11.2 °F 71% 29.70 in 10.0 mi South 5.8 mph - N/A   Clear
5:55 PM -4.0 °F -17.8 °F -11.2 °F 71% 29.69 in 8.0 mi South 6.9 mph - N/A   Partly Cloudy
6:15 PM -4.0 °F -17.8 °F -9.4 °F 78% 29.70 in 7.0 mi SSW 6.9 mph - N/A   Scattered Clouds
6:35 PM -2.2 °F -15.6 °F -9.4 °F 71% 29.69 in 3.0 mi South 6.9 mph - N/A   Haze
6:55 PM -2.2 °F -14.2 °F -7.6 °F 78% 29.70 in 8.0 mi South 5.8 mph - N/A   Overcast
7:15 PM -2.2 °F -12.5 °F -7.6 °F 78% 29.70 in 8.0 mi SSW 4.6 mph - N/A   Overcast
7:35 PM -2.2 °F -12.5 °F -7.6 °F 78% 29.70 in 2.0 mi SW 4.6 mph - N/A Snow Light Snow
7:55 PM -2.2 °F - -7.6 °F 78% 29.71 in 5.0 mi Calm Calm - N/A   Haze
8:15 PM -2.2 °F -10.4 °F -7.6 °F 78% 29.72 in 5.0 mi WNW 3.5 mph - N/A   Haze
8:35 PM -2.2 °F -10.4 °F -7.6 °F 78% 29.72 in 10.0 mi WNW 3.5 mph - N/A   Overcast
8:55 PM -2.2 °F -14.2 °F -9.4 °F 71% 29.73 in 10.0 mi NW 5.8 mph - N/A   Mostly Cloudy
9:15 PM -4.0 °F -14.6 °F -9.4 °F 78% 29.72 in 10.0 mi NW 4.6 mph - N/A   Scattered Clouds
9:35 PM -4.0 °F -16.3 °F -9.4 °F 78% 29.72 in 10.0 mi NW 5.8 mph - N/A   Partly Cloudy
9:55 PM -7.6 °F -22.1 °F -13.0 °F 77% 29.73 in 10.0 mi NW 6.9 mph - N/A   Clear
10:15 PM -7.6 °F -26.6 °F -13.0 °F 77% 29.73 in 10.0 mi NW 11.5 mph - N/A   Clear
10:35 PM -5.8 °F -25.2 °F -11.2 °F 77% 29.75 in 10.0 mi NW 12.7 mph - N/A   Clear
10:55 PM -7.6 °F -29.1 °F -13.0 °F 77% 29.75 in 9.0 mi NW 15.0 mph - N/A   Scattered Clouds
11:15 PM -7.6 °F -25.7 °F -13.0 °F 77% 29.76 in 5.0 mi NW 10.4 mph - N/A   Haze
11:35 PM -9.4 °F -26.8 °F -13.0 °F 84% 29.76 in 10.0 mi WNW 9.2 mph - N/A   Mostly Cloudy
11:55 PM -9.4 °F -30.6 °F -14.8 °F 77% 29.77 in 10.0 mi WNW 13.8 mph - N/A   Scattered Clouds